Location: Evergreen Manor
(41.4083°N, 81.4939°W)
Time: 21:04:48
(UTC+00:00)

STARLINK 1040 - Pass Details

Date: 11 December 2019
Orbit: 337 x 342 km, 53.0° (Epoch: 24 January)

Event Time Altitude Azimuth Distance (km) Brightness Sun altitude
Exits shadow 11:23:11 28° 258° (WSW) 711 3.7 -14.2°
Maximum altitude 11:23:57 33° 225° (SW) 629 3.7 -14.1°
Drops below altitude 10° 11:26:41 10° 158° (SSE) 1,335 6.2 -13.6°
Sets 11:28:47 0° 149° (SSE) 2,172 7.5 -13.2°
